Flight Track Log - Related Links

Times and Time Zones

All times are in EDT time to prevent confusion due to time zone crossing. See the N400PU flight status page for this flight to view local times or setup timezone preferences in your user account.

Time Position Orientation Groundspeed Altitude Reporting Facility
EDT Latitude Longitude Course Direction KTS MPH feet Rate Location/Type
Tue 10:10:21 AM 40.4058 -86.9031 96° East 195 224 1,700  Level Chicago Center
Tue 10:10:51 AM 40.4031 -86.8672 96° East 197 227 3,000 2,308 Climbing Chicago Center
Tue 10:11:52 AM 40.3975 -86.7933 96° East 217 250 5,200 1,983 Climbing Chicago Center
Tue 10:12:52 AM 40.3867 -86.6914 98° East 268 308 7,000 893 Climbing Chicago Center
Tue 10:13:53 AM 40.3739 -86.5817 99° East 293 337 7,000  Level Chicago Center
Tue 10:14:53 AM 40.3631 -86.4800 98° East 294 338 7,000  Level Chicago Center
Tue 10:15:54 AM 40.3522 -86.3703 97° East 292 336 7,000  Level Chicago Center
Tue 10:16:55 AM 40.3408 -86.2686 98° East 293 337 7,000  Level Chicago Center
Tue 10:18:22 AM 40.3267 -86.1244 97° East 291 335 7,000 -403 Level Chicago Center
Tue 10:19:24 AM 40.3144 -86.0233 99° East 285 328 6,000 -1,355 Descending Chicago Center
Tue 10:20:26 AM 40.3039 -85.9231 98° East 280 322 4,200 -1,000 Descending Chicago Center
Tue 10:21:24 AM 40.2764 -85.8353 112° Southeast 276 318 4,000 -100 Descending Indianapolis Center
Tue 10:22:26 AM 40.2453 -85.7489 115° Southeast 267 307 4,000 -48 Level Indianapolis Center
Tue 10:23:28 AM 40.2075 -85.6425 115° Southeast 266 306 3,900 -484 Descending Indianapolis Center
Tue 10:24:30 AM 40.1750 -85.5553 116° Southeast 267 307 3,000 -435 Descending Indianapolis Center
Tue 10:25:32 AM 40.1447 -85.4775 117° Southeast 258 297 3,000  Level Indianapolis Center
Tue 10:26:34 AM 40.1217 -85.4150 116° Southeast 226 260 3,000  Level Indianapolis Center
Tue 10:27:36 AM 40.1014 -85.3572 115° Southeast 197 227 3,000  Level Indianapolis Center
Tue 10:28:38 AM 40.1092 -85.3003 80° East 174 200 3,000  Level Indianapolis Center
Tue 10:29:40 AM 40.1369 -85.2861 21° North 171 197 3,000 -290 Level Indianapolis Center
Tue 10:30:42 AM 40.1836 -85.3244 328° Northwest 168 193 2,400 -581 Descending Indianapolis Center

Login

Don't have an account? Register now (free) for customized features, flight alerts, and more!